TimeEST,TemperatureF,Dew PointF,Humidity,Sea Level PressureIn,VisibilityMPH,Wind Direction,Wind SpeedMPH,Gust SpeedMPH,PrecipitationIn,Events,Conditions,WindDirDegrees,DateUTC
12:00 AM,35.6,28.4,75,30.16,25.0,NE,8.1,-,N/A,,Overcast,50,2011-11-27 05:00:00
1:00 AM,37.4,30.2,75,30.14,25.0,NE,4.6,-,N/A,,Overcast,50,2011-11-27 06:00:00
2:00 AM,37.4,30.2,75,30.15,25.0,NE,6.9,-,N/A,,Overcast,50,2011-11-27 07:00:00
3:00 AM,37.4,30.2,75,30.13,25.0,ENE,9.2,-,N/A,,Overcast,60,2011-11-27 08:00:00
4:00 AM,37.4,32.0,81,30.12,25.0,ENE,8.1,-,N/A,,Overcast,60,2011-11-27 09:00:00
5:00 AM,37.4,32.0,81,30.10,25.0,NE,10.4,18.4,N/A,,Mostly Cloudy,50,2011-11-27 10:00:00
5:15 AM,37.4,32.0,81,-9999,25.0,NE,9.2,17.3,N/A,Rain,Light Rain Showers,50,2011-11-27 10:15:00
6:00 AM,37.4,32.0,81,30.10,25.0,NE,9.2,-,N/A,Rain,Light Rain Showers,50,2011-11-27 11:00:00
7:00 AM,37.4,32.0,81,30.08,20.0,NE,10.4,-,N/A,,Mostly Cloudy,40,2011-11-27 12:00:00
8:00 AM,37.4,32.0,81,30.08,25.0,NNE,4.6,-,N/A,,Overcast,30,2011-11-27 13:00:00
9:00 AM,37.4,33.8,87,30.06,25.0,NE,6.9,-,N/A,Rain,Light Rain Showers,50,2011-11-27 14:00:00
10:00 AM,39.2,35.6,87,30.06,25.0,NE,6.9,-,N/A,,Overcast,50,2011-11-27 15:00:00
11:00 AM,41.0,35.6,81,30.04,25.0,NE,8.1,-,N/A,,Overcast,50,2011-11-27 16:00:00
11:38 AM,41.0,35.6,81,-9999,25.0,NE,8.1,-,N/A,Rain,Light Rain Showers,50,2011-11-27 16:38:00
12:00 PM,41.0,35.6,81,30.01,25.0,NE,8.1,-,N/A,,Overcast,50,2011-11-27 17:00:00
1:00 PM,41.0,37.4,87,29.98,25.0,NE,8.1,-,N/A,,Overcast,40,2011-11-27 18:00:00
1:41 PM,39.2,37.4,93,-9999,20.0,NE,9.2,-,N/A,Rain,Light Rain Showers,50,2011-11-27 18:41:00
2:00 PM,41.0,37.4,87,29.95,25.0,NE,8.1,-,N/A,,Overcast,40,2011-11-27 19:00:00
3:00 PM,42.8,37.4,81,29.93,20.0,NE,8.1,-,N/A,,Overcast,50,2011-11-27 20:00:00
4:00 PM,42.8,39.2,87,29.91,20.0,NE,6.9,-,N/A,,Overcast,40,2011-11-27 21:00:00
5:00 PM,41.0,39.2,93,29.92,25.0,North,8.1,-,N/A,Rain,Light Rain Showers,10,2011-11-27 22:00:00
6:00 PM,41.0,39.2,93,29.90,25.0,NE,5.8,-,N/A,Rain,Light Rain Showers,40,2011-11-27 23:00:00
7:00 PM,41.0,39.2,93,29.90,25.0,NNE,5.8,-,N/A,,Overcast,30,2011-11-28 00:00:00
7:50 PM,41.0,41.0,100,-9999,10.0,NNE,3.5,-,N/A,Rain,Light Rain Showers,30,2011-11-28 00:50:00
8:00 PM,42.8,41.0,93,29.89,10.0,NE,2.3,-,N/A,Rain,Light Rain Showers,40,2011-11-28 01:00:00
9:00 PM,42.8,41.0,93,29.88,10.0,NNE,5.8,-,N/A,Rain,Light Rain,30,2011-11-28 02:00:00
10:00 PM,42.8,41.0,93,29.86,10.0,NNE,3.5,-,N/A,Rain,Light Rain,20,2011-11-28 03:00:00
11:00 PM,44.6,42.8,93,29.85,15.0,Calm,Calm,-,N/A,Rain,Light Rain,0,2011-11-28 04:00:00